BAW73J EIDW-EDDF

Flight info

Callsign BAW73J
Flight time N/A
Altitude 39000
Route ENDEQ3J ENDEQ Q36 ALAVA Z195 MALUD UL975 WAL M16 DOLAS DCT NAVPI DCT NOLRU DCT DIXAT DIXAT1D
Aircraft A339/H-SDE3FGHIRWY/S

Departure

Time N/A
Airport Dublin Airport (EIDW)

Arrival

Time 2026-04-15 11:04
Airport Frankfurt Main Airport (EDDF)
Time Latitude Longitude Altitude Speed Heading
2026-04-15 10:29 51.28136 7.09744 20162 ft 404 kts 112°
2026-04-15 10:29 51.26895 7.13655 19943 ft 393 kts 124°
2026-04-15 10:29 51.25123 7.17041 19596 ft 391 kts 137°
2026-04-15 10:29 51.23016 7.19749 19250 ft 387 kts 144°
2026-04-15 10:30 51.20867 7.22265 18908 ft 384 kts 144°
2026-04-15 10:30 51.18705 7.24773 18546 ft 381 kts 144°
2026-04-15 10:30 51.16556 7.27272 18169 ft 379 kts 144°
2026-04-15 10:30 51.14448 7.29736 17810 ft 376 kts 144°
2026-04-15 10:31 51.12347 7.32200 17452 ft 374 kts 144°
2026-04-15 10:31 51.10243 7.34673 17075 ft 372 kts 144°
2026-04-15 10:31 51.08167 7.37113 16705 ft 370 kts 144°
2026-04-15 10:31 51.06113 7.39527 16331 ft 368 kts 144°
2026-04-15 10:32 51.04059 7.41938 15963 ft 365 kts 144°
2026-04-15 10:32 51.02032 7.44314 15614 ft 362 kts 144°
2026-04-15 10:32 51.00013 7.46683 15255 ft 360 kts 144°
2026-04-15 10:32 50.97991 7.49032 14886 ft 358 kts 144°
2026-04-15 10:33 50.95969 7.51359 14515 ft 356 kts 145°
2026-04-15 10:33 50.93964 7.53670 14146 ft 354 kts 144°
2026-04-15 10:33 50.91975 7.55961 13771 ft 352 kts 144°
2026-04-15 10:33 50.89987 7.58211 13390 ft 349 kts 148°
2026-04-15 10:34 50.87881 7.60066 13019 ft 346 kts 154°
2026-04-15 10:34 50.85707 7.61613 12648 ft 343 kts 160°
2026-04-15 10:34 50.83495 7.62541 12267 ft 339 kts 177°
2026-04-15 10:34 50.81177 7.62423 11979 ft 334 kts 184°
2026-04-15 10:35 50.78840 7.62232 11687 ft 334 kts 183°
2026-04-15 10:35 50.76488 7.62098 11429 ft 333 kts 182°
2026-04-15 10:35 50.74189 7.62003 11185 ft 332 kts 182°
2026-04-15 10:35 50.71862 7.61952 10941 ft 331 kts 179°
2026-04-15 10:36 50.69614 7.62301 10659 ft 314 kts 168°
2026-04-15 10:36 50.67577 7.63272 10399 ft 296 kts 156°
2026-04-15 10:36 50.65752 7.64635 10155 ft 288 kts 153°
2026-04-15 10:36 50.64061 7.65990 10020 ft 288 kts 153°
2026-04-15 10:37 50.62275 7.67444 9899 ft 287 kts 153°
2026-04-15 10:37 50.60542 7.68852 9801 ft 287 kts 154°
2026-04-15 10:37 50.58754 7.70300 9696 ft 287 kts 154°
2026-04-15 10:37 50.56988 7.71725 9573 ft 286 kts 154°
2026-04-15 10:38 50.55214 7.73155 9449 ft 285 kts 154°
2026-04-15 10:38 50.53424 7.74594 9325 ft 284 kts 154°
2026-04-15 10:38 50.51662 7.76011 9200 ft 283 kts 154°
2026-04-15 10:38 50.49907 7.77419 9075 ft 282 kts 154°
2026-04-15 10:39 50.48154 7.78826 8950 ft 281 kts 154°
2026-04-15 10:39 50.46428 7.80211 8825 ft 280 kts 154°
2026-04-15 10:39 50.44686 7.81675 8699 ft 279 kts 150°
2026-04-15 10:39 50.43044 7.83280 8575 ft 278 kts 146°
2026-04-15 10:40 50.41479 7.85057 8452 ft 278 kts 142°
2026-04-15 10:40 50.39958 7.86946 8328 ft 277 kts 142°
2026-04-15 10:40 50.38438 7.88837 8202 ft 277 kts 142°
2026-04-15 10:40 50.36924 7.90719 8078 ft 276 kts 142°
2026-04-15 10:41 50.35431 7.92572 7955 ft 275 kts 142°
2026-04-15 10:41 50.33919 7.94446 7829 ft 274 kts 142°
2026-04-15 10:41 50.32436 7.96280 7705 ft 274 kts 142°
2026-04-15 10:41 50.30927 7.98146 7578 ft 273 kts 142°
2026-04-15 10:42 50.29448 7.99973 7456 ft 272 kts 142°
2026-04-15 10:42 50.27970 8.01813 7332 ft 271 kts 139°
2026-04-15 10:42 50.26722 8.04025 7202 ft 271 kts 124°
2026-04-15 10:42 50.25883 8.06686 7075 ft 271 kts 109°
2026-04-15 10:43 50.25384 8.09509 6954 ft 271 kts 105°
2026-04-15 10:43 50.24934 8.12406 6827 ft 271 kts 104°
2026-04-15 10:43 50.24493 8.15272 6700 ft 270 kts 104°
2026-04-15 10:43 50.24045 8.18134 6572 ft 269 kts 105°
2026-04-15 10:44 50.23593 8.20970 6444 ft 269 kts 105°
2026-04-15 10:44 50.23144 8.23768 6318 ft 267 kts 105°
2026-04-15 10:44 50.22684 8.26601 6194 ft 267 kts 105°
2026-04-15 10:44 50.22229 8.29400 6072 ft 266 kts 105°
2026-04-15 10:45 50.21774 8.32202 5949 ft 265 kts 105°
2026-04-15 10:45 50.21316 8.34989 5830 ft 265 kts 107°
2026-04-15 10:45 50.20529 8.37567 5692 ft 263 kts 127°
2026-04-15 10:45 50.19228 8.39541 5562 ft 261 kts 146°
2026-04-15 10:46 50.17590 8.40780 5440 ft 261 kts 159°
2026-04-15 10:46 50.15853 8.41736 5307 ft 262 kts 164°
2026-04-15 10:46 50.14054 8.42014 5168 ft 262 kts 184°
2026-04-15 10:46 50.12276 8.41326 5042 ft 264 kts 203°
2026-04-15 10:47 50.10730 8.39746 4952 ft 266 kts 222°
2026-04-15 10:47 50.09605 8.37461 4949 ft 269 kts 241°
2026-04-15 10:47 50.08884 8.34753 4953 ft 270 kts 248°
2026-04-15 10:47 50.08242 8.31999 4948 ft 270 kts 249°
2026-04-15 10:48 50.07600 8.29231 4947 ft 270 kts 249°
2026-04-15 10:48 50.06953 8.26485 4945 ft 270 kts 248°
2026-04-15 10:48 50.06296 8.23736 4947 ft 270 kts 248°
2026-04-15 10:48 50.05637 8.21013 4941 ft 269 kts 248°
2026-04-15 10:49 50.04972 8.18282 4937 ft 268 kts 248°
2026-04-15 10:49 50.04308 8.15562 4932 ft 268 kts 248°
2026-04-15 10:49 50.03635 8.12813 4928 ft 268 kts 248°
2026-04-15 10:49 50.02977 8.10125 4929 ft 268 kts 248°
2026-04-15 10:50 50.02308 8.07382 4927 ft 268 kts 248°
2026-04-15 10:50 50.01642 8.04651 4925 ft 268 kts 248°
2026-04-15 10:50 50.00973 8.01914 4925 ft 269 kts 248°
2026-04-15 10:50 50.00314 7.99217 4926 ft 269 kts 248°
2026-04-15 10:51 49.99640 7.96466 4930 ft 269 kts 248°
2026-04-15 10:51 49.98978 7.93765 4933 ft 268 kts 248°
2026-04-15 10:51 49.98318 7.91076 4930 ft 261 kts 248°
2026-04-15 10:51 49.97699 7.88550 4922 ft 239 kts 248°
2026-04-15 10:52 49.97075 7.86251 4919 ft 224 kts 236°
2026-04-15 10:52 49.96031 7.84476 4931 ft 221 kts 213°
2026-04-15 10:52 49.94643 7.83486 4933 ft 219 kts 191°
2026-04-15 10:52 49.93150 7.83378 4919 ft 206 kts 169°
2026-04-15 10:53 49.91847 7.83963 4925 ft 185 kts 159°
2026-04-15 10:53 49.90770 7.84821 4908 ft 166 kts 142°
2026-04-15 10:53 49.89990 7.86072 4919 ft 165 kts 125°
2026-04-15 10:53 49.89476 7.87643 4930 ft 166 kts 108°
2026-04-15 10:54 49.89289 7.89318 4931 ft 166 kts 92°
2026-04-15 10:54 49.89447 7.91131 4931 ft 167 kts 74°
2026-04-15 10:54 49.89846 7.92843 4933 ft 167 kts 71°
2026-04-15 10:54 49.90279 7.94534 4932 ft 167 kts 70°
2026-04-15 10:55 49.90708 7.96213 4932 ft 167 kts 71°
2026-04-15 10:55 49.91127 7.97883 4933 ft 167 kts 71°
2026-04-15 10:55 49.91545 7.99566 4933 ft 168 kts 71°
2026-04-15 10:55 49.91966 8.01272 4935 ft 168 kts 71°
2026-04-15 10:56 49.92388 8.02986 4937 ft 168 kts 71°
2026-04-15 10:56 49.92802 8.04674 4941 ft 168 kts 71°
2026-04-15 10:56 49.93219 8.06378 4944 ft 169 kts 71°
2026-04-15 10:56 49.93637 8.08084 4943 ft 168 kts 71°
2026-04-15 10:57 49.94051 8.09782 4944 ft 168 kts 71°
2026-04-15 10:57 49.94848 8.13042 4928 ft 152 kts 71°
2026-04-15 10:57 49.95221 8.14575 4930 ft 152 kts 71°
2026-04-15 10:58 49.95596 8.16119 4688 ft 152 kts 71°
2026-04-15 10:58 49.95967 8.17644 4456 ft 149 kts 71°
2026-04-15 10:58 49.96332 8.19145 4247 ft 149 kts 71°
2026-04-15 10:58 49.96698 8.20651 4036 ft 148 kts 71°
2026-04-15 10:59 49.97057 8.22135 3830 ft 148 kts 71°
2026-04-15 10:59 49.97422 8.23636 3623 ft 147 kts 71°
2026-04-15 10:59 49.97783 8.25126 3426 ft 146 kts 71°
2026-04-15 10:59 49.98141 8.26605 3285 ft 146 kts 71°
2026-04-15 11:00 49.98495 8.28070 3114 ft 146 kts 71°
2026-04-15 11:00 49.98854 8.29557 2965 ft 145 kts 70°
2026-04-15 11:00 49.99209 8.31024 2813 ft 146 kts 70°
2026-04-15 11:00 49.99583 8.32585 2735 ft 159 kts 70°
2026-04-15 11:01 49.99970 8.34205 2736 ft 157 kts 70°
2026-04-15 11:01 50.00350 8.35772 2552 ft 152 kts 69°
2026-04-15 11:01 50.00758 8.37277 2284 ft 150 kts 69°
2026-04-15 11:01 50.01115 8.38811 1974 ft 150 kts 72°
2026-04-15 11:02 50.01459 8.40347 1665 ft 151 kts 70°
2026-04-15 11:02 50.01814 8.41887 1379 ft 151 kts 70°
2026-04-15 11:02 50.02209 8.43428 1105 ft 155 kts 68°
2026-04-15 11:02 50.02580 8.44979 906 ft 150 kts 71°
2026-04-15 11:03 50.02923 8.46498 700 ft 148 kts 70°
2026-04-15 11:03 50.03297 8.48030 587 ft 147 kts 69°
2026-04-15 11:03 50.03654 8.49481 374 ft 143 kts 69°
2026-04-15 11:03 50.03970 8.50807 337 ft 99 kts 70°
2026-04-15 11:04 50.04107 8.51593 344 ft 59 kts 93°
2026-04-15 11:04 50.04092 8.51819 345 ft 0 kts 97°
2026-04-15 11:04 50.04091 8.51833 345 ft 5 kts 97°
2026-04-15 11:04 50.04077 8.51986 346 ft 16 kts 97°
2026-04-15 11:05 50.04079 8.52153 347 ft 14 kts 77°
2026-04-15 11:05 50.04111 8.52304 349 ft 14 kts 69°
2026-04-15 11:05 50.04147 8.52450 350 ft 14 kts 69°
2026-04-15 11:05 50.04183 8.52596 352 ft 14 kts 69°
2026-04-15 11:06 50.04217 8.52737 353 ft 14 kts 69°
2026-04-15 11:06 50.04251 8.52877 355 ft 13 kts 69°
2026-04-15 11:06 50.04284 8.53016 357 ft 13 kts 70°
2026-04-15 11:06 50.04316 8.53155 358 ft 13 kts 70°
2026-04-15 11:07 50.04349 8.53295 359 ft 13 kts 68°
2026-04-15 11:07 50.04382 8.53435 360 ft 13 kts 71°
2026-04-15 11:07 50.04401 8.53585 360 ft 14 kts 82°
2026-04-15 11:07 50.04412 8.53745 361 ft 14 kts 84°
2026-04-15 11:08 50.04422 8.53909 361 ft 15 kts 84°
2026-04-15 11:08 50.04433 8.54081 361 ft 16 kts 83°
2026-04-15 11:08 50.04447 8.54269 360 ft 17 kts 83°
2026-04-15 11:08 50.04451 8.54462 359 ft 18 kts 98°
2026-04-15 11:09 50.04407 8.54644 360 ft 17 kts 127°
2026-04-15 11:09 50.04318 8.54767 359 ft 16 kts 152°
2026-04-15 11:09 50.04224 8.54832 359 ft 13 kts 161°
2026-04-15 11:09 50.04170 8.54861 359 ft 0 kts 161°
2026-04-15 11:10 50.04165 8.54863 359 ft 0 kts 161°
2026-04-15 11:10 50.04160 8.54866 359 ft 0 kts 161°
2026-04-15 11:11 50.04155 8.54868 359 ft 0 kts 161°
2026-04-15 11:11 50.04154 8.54869 359 ft 0 kts 161°
2026-04-15 11:11 50.04153 8.54870 359 ft 0 kts 161°
2026-04-15 11:11 50.04115 8.54890 358 ft 9 kts 160°
2026-04-15 11:12 50.04097 8.54899 358 ft 0 kts 160°
2026-04-15 11:12 50.04085 8.54906 358 ft 2 kts 160°
2026-04-15 11:12 50.04064 8.54917 358 ft 4 kts 160°
2026-04-15 11:12 50.04027 8.54921 358 ft 6 kts 194°
2026-04-15 11:13 50.03992 8.54880 358 ft 6 kts 235°
2026-04-15 11:13 50.03973 8.54815 357 ft 5 kts 245°
2026-04-15 11:13 50.03953 8.54746 357 ft 8 kts 247°
2026-04-15 11:13 50.03927 8.54678 356 ft 6 kts 211°
2026-04-15 11:14 50.03891 8.54675 356 ft 5 kts 168°
2026-04-15 11:14 50.03852 8.54692 356 ft 0 kts 161°
2026-04-15 11:14 50.03849 8.54694 356 ft 1 kts 162°
2026-04-15 11:14 50.03846 8.54695 356 ft 0 kts 162°